Simultaneous Nadir Overpasses (SNOs) Predictions

Prediction of SNOs over PacNW region [( 10.00, 139.50) to ( 22.70, 165.60)] between NOAA-19 and NPP Satellites:

Table of predicted SNOs over PacNW region for the next 30.0 days since TLE Epoch: 7/20/2012
Index Date (NOAA-19) Time (NOAA-19) NOAA-19 Lat,Lon Date (NPP) Time (NPP) NPP Lat,Lon Distance(km) Time Diff (sec)
1 07/27/2012 15:43:44 22.64, 150.99 07/27/2012 15:47:10 23.38, 147.80 337.34 206
2 07/28/2012 03:00:13 22.68, 154.45 07/28/2012 02:59:55 22.25, 152.25 230.57 18
3 07/28/2012 15:36:32 10.06, 150.66 07/28/2012 15:32:56 6.50, 148.57 458.16 216
4 08/09/2012 02:30:45 16.23, 162.96 08/09/2012 02:32:36 15.63, 160.19 303.35 111
5 08/09/2012 15:07:48 13.87, 158.48 08/09/2012 15:05:17 14.29, 156.70 198.56 151
